TimeEET,TemperatureF,Dew PointF,Humidity,Sea Level PressureIn,VisibilityMPH,Wind Direction,Wind SpeedMPH,Gust SpeedMPH,PrecipitationIn,Events,Conditions,WindDirDegrees,DateUTC
12:20 AM,48.2,44.6,87,30.30,6.2,Calm,Calm,-,N/A,,Mostly Cloudy,0,2013-03-05 22:20:00
12:50 AM,44.6,41.0,87,30.30,6.2,Calm,Calm,-,N/A,,Mostly Cloudy,0,2013-03-05 22:50:00
1:50 AM,46.4,42.8,87,30.30,6.2,Calm,Calm,-,N/A,,Mostly Cloudy,0,2013-03-05 23:50:00
2:00 AM,47,43,82,30.30,6,Calm,Calm,,,,Scattered Clouds,,2013-03-06 00:00:00
2:20 AM,46.4,42.8,87,30.30,6.2,Calm,Calm,-,N/A,,Mostly Cloudy,0,2013-03-06 00:20:00
2:50 AM,46.4,42.8,87,30.30,6.2,Calm,Calm,-,N/A,,Mostly Cloudy,0,2013-03-06 00:50:00
4:50 AM,44.6,41.0,87,30.27,6.2,Calm,Calm,-,N/A,,Mostly Cloudy,0,2013-03-06 02:50:00
5:20 AM,44.6,41.0,87,30.27,6.2,Calm,Calm,-,N/A,,Mostly Cloudy,0,2013-03-06 03:20:00
6:20 AM,42.8,39.2,87,30.24,6.2,NNE,4.6,-,N/A,,Mostly Cloudy,30,2013-03-06 04:20:00
6:50 AM,44.6,39.2,81,30.24,6.2,Calm,Calm,-,N/A,,Mostly Cloudy,0,2013-03-06 04:50:00
7:20 AM,44.6,39.2,81,30.24,6.2,Calm,Calm,-,N/A,,Mostly Cloudy,0,2013-03-06 05:20:00
7:50 AM,46.4,39.2,76,30.24,6.2,Calm,Calm,-,N/A,,Mostly Cloudy,0,2013-03-06 05:50:00
8:00 AM,46,40,71,30.26,6,Calm,Calm,,,,Scattered Clouds,,2013-03-06 06:00:00
8:20 AM,46.4,39.2,76,30.24,6.2,Calm,Calm,-,N/A,,Mostly Cloudy,0,2013-03-06 06:20:00
8:50 AM,48.2,42.8,82,30.24,6.2,Calm,Calm,-,N/A,,Mostly Cloudy,0,2013-03-06 06:50:00
9:20 AM,50.0,42.8,76,30.24,6.2,Calm,Calm,-,N/A,,Overcast,0,2013-03-06 07:20:00
9:50 AM,51.8,44.6,76,30.24,6.2,Calm,Calm,-,N/A,,Overcast,0,2013-03-06 07:50:00
10:20 AM,53.6,44.6,72,30.24,6.2,Calm,Calm,-,N/A,,Overcast,0,2013-03-06 08:20:00
10:50 AM,57.2,39.2,51,30.24,6.2,NNE,5.8,-,N/A,,Mostly Cloudy,30,2013-03-06 08:50:00
11:20 AM,59.0,37.4,45,30.24,6.2,Calm,Calm,-,N/A,,Mostly Cloudy,0,2013-03-06 09:20:00
11:50 AM,59.0,35.6,42,30.24,6.2,Calm,Calm,-,N/A,,Mostly Cloudy,0,2013-03-06 09:50:00
12:20 PM,59.0,35.6,42,30.24,6.2,Calm,Calm,-,N/A,,Mostly Cloudy,0,2013-03-06 10:20:00
12:50 PM,60.8,37.4,42,30.21,6.2,Calm,Calm,-,N/A,,Mostly Cloudy,0,2013-03-06 10:50:00
1:20 PM,60.8,37.4,42,30.21,6.2,Calm,Calm,-,N/A,,Mostly Cloudy,0,2013-03-06 11:20:00
1:50 PM,59.0,33.8,39,30.21,6.2,SW,5.8,-,N/A,,Overcast,230,2013-03-06 11:50:00
2:00 PM,60,33,25,30.21,6,SW,5.8,,,,Overcast,230,2013-03-06 12:00:00
2:20 PM,59.0,33.8,39,30.21,6.2,SW,5.8,-,N/A,,Overcast,230,2013-03-06 12:20:00
2:50 PM,59.0,37.4,45,30.18,6.2,Calm,Calm,-,N/A,,Overcast,0,2013-03-06 12:50:00
3:20 PM,59.0,37.4,45,30.15,6.2,Calm,Calm,-,N/A,,Overcast,0,2013-03-06 13:20:00
3:50 PM,59.0,42.8,55,30.15,6.2,Calm,Calm,-,N/A,,Overcast,0,2013-03-06 13:50:00
4:20 PM,59.0,42.8,55,30.15,6.2,Calm,Calm,-,N/A,,Overcast,0,2013-03-06 14:20:00
4:50 PM,57.2,42.8,59,30.09,6.2,Calm,Calm,-,N/A,,Overcast,0,2013-03-06 14:50:00
5:20 PM,57.2,42.8,59,30.09,6.2,Calm,Calm,-,N/A,,Overcast,0,2013-03-06 15:20:00
5:50 PM,57.2,44.6,63,30.09,6.2,Calm,Calm,-,N/A,,Overcast,0,2013-03-06 15:50:00
6:50 PM,53.6,44.6,72,30.09,6.2,Calm,Calm,-,N/A,,Overcast,0,2013-03-06 16:50:00
7:20 PM,53.6,44.6,72,30.06,6.2,Calm,Calm,-,N/A,,Overcast,0,2013-03-06 17:20:00
7:50 PM,53.6,42.8,67,30.09,6.2,Calm,Calm,-,N/A,,Overcast,0,2013-03-06 17:50:00
8:00 PM,54,43,57,30.10,6,Calm,Calm,,,,Overcast,,2013-03-06 18:00:00
8:20 PM,53.6,42.8,67,30.09,6.2,Calm,Calm,-,N/A,,Overcast,0,2013-03-06 18:20:00
8:50 PM,51.8,44.6,76,30.06,6.2,Calm,Calm,-,N/A,,Mostly Cloudy,0,2013-03-06 18:50:00
9:20 PM,51.8,44.6,76,30.06,6.2,Calm,Calm,-,N/A,,Mostly Cloudy,0,2013-03-06 19:20:00
9:50 PM,51.8,44.6,76,30.06,6.2,Calm,Calm,-,N/A,,Mostly Cloudy,0,2013-03-06 19:50:00
10:20 PM,50.0,44.6,82,30.06,6.2,Calm,Calm,-,N/A,,Mostly Cloudy,0,2013-03-06 20:20:00
10:50 PM,50.0,44.6,82,30.06,6.2,Calm,Calm,-,N/A,,Mostly Cloudy,0,2013-03-06 20:50:00
11:20 PM,50.0,44.6,82,30.06,6.2,Calm,Calm,-,N/A,,Mostly Cloudy,0,2013-03-06 21:20:00